This demonstration page uses our WeatherBlox Daily Observations layout. Learn more.

Left ArrowRight Arrow

34.16533, -84.80231

Hourly Observations for August 2, 2018

Temp ( °F °C ) Dew Point ( °F °C ) Humidity (%) Winds ( mph kmh ) Pressure ( in mb ) Visibility ( mi km ) Precip ( " mm )
12:11 am 00:11 Mostly Cloudy 70 21.1 70 21.1 100 100 Calm 30.03 1017 10 16 0.00 0.03
12:33 am 00:33 Cloudy 70 21.1 70 21.1 100 100 Calm 30.06 1018 10 16 0.00 0.03
12:53 am 00:53 Cloudy 70 21.1 70 21.1 100 100 Calm 30.04 1017 10 16 0.00 0.03
1:17 am 01:17 Cloudy 70 21.1 70 21.1 100 100 Calm 30.03 1017 10 16 0.01 0.25
1:37 am 01:37 Cloudy 70 21.1 70 21.1 100 100 Calm 30.03 1017 10 16 0.01 0.25
1:53 am 01:53 Cloudy 70 21.1 70 21.1 100 100 Calm 30.03 1017 10 16 0.01 0.25
2:26 am 02:26 Cloudy with Rain 70 21.1 70 21.1 100 100 ESE 3 6 30.03 1017 4 6 0.02 0.51
2:36 am 02:36 Cloudy with Light Rain 70 21.1 70 21.1 100 100 VRB 3 6 30.03 1017 5 8 0.03 0.76
2:53 am 02:53 Cloudy 70 21.1 70 21.1 100 100 Calm 30.03 1017 10 16 0.03 0.76
3:15 am 03:15 Cloudy 70 21.1 70 21.1 100 100 Calm 30.03 1017 10 16 0.00 0.00
3:53 am 03:53 Cloudy 70 21.1 70 21.1 100 100 Calm 30.01 1016 10 16 0.00 0.00
4:53 am 04:53 Cloudy 70 21.1 70 21.1 100 100 Calm 30.01 1016 10 16 0.01 0.25
5:00 am 05:00 Cloudy 70 21.1 70 21.1 100 100 Calm 30.03 1017 10 16 0.00 0.00
5:53 am 05:53 Cloudy 70 21.1 70 21.1 100 100 Calm 30.02 1017 10 16 0.00 0.03
6:00 am 06:00 Mostly Cloudy with Light Rain 70 21.1 70 21.1 100 100 Calm 30.03 1017 10 16 0.00 0.03
6:14 am 06:14 Mostly Cloudy with Light Rain 70 21.1 70 21.1 100 100 Calm 30.03 1017 10 16 0.00 0.03
6:53 am 06:53 Cloudy with Light Rain 71 21.7 71 21.7 100 100 Calm 30.04 1017 10 16 0.01 0.25
7:25 am 07:25 Mostly Cloudy with Light Rain 71 21.7 71 21.7 100 100 Calm 30.03 1017 8 13 0.01 0.25
7:53 am 07:53 Cloudy 71 21.7 71 21.7 100 100 ESE 3 6 30.04 1017 10 16 0.02 0.51
8:10 am 08:10 Cloudy 71 21.7 71 21.7 100 100 Calm 30.03 1017 10 16 0.00 0.00
8:43 am 08:43 Mostly Cloudy 72 22.2 72 22.2 100 100 ESE 3 6 30.03 1017 10 16 0.00 0.00
8:53 am 08:53 Partly Cloudy 72 22.2 72 22.2 100 100 ESE 3 6 30.04 1017 10 16 0.00 0.00
9:17 am 09:17 Cloudy 72 22.2 72 22.2 100 100 Calm 30.06 1018 10 16 0.00 0.00
9:53 am 09:53 Cloudy with Light Rain 72 22.2 72 22.2 100 100 S 5 7 30.05 1018 10 16 0.00 0.03
10:11 am 10:11 Cloudy with Light Rain 72 22.2 72 22.2 100 100 SSE 7 11 30.06 1018 9 14 0.02 0.51
10:34 am 10:34 Cloudy with Light Rain 72 22.2 72 22.2 100 100 SE 5 7 30.06 1018 10 16 0.02 0.51
10:36 am 10:36 Cloudy with Light Rain 73 22.8 72 22.2 96 96 VRB 5 7 30.06 1018 10 16 0.02 0.51
10:53 am 10:53 Cloudy with Light Rain 73 22.8 72 22.2 96 96 SSE 6 9 30.06 1018 10 16 0.02 0.51
11:28 am 11:28 Cloudy with Light Rain 73 22.8 73 22.8 100 100 VRB 3 6 30.06 1018 8 13 0.02 0.51
11:53 am 11:53 Cloudy with Light Rain 73 22.8 73 22.8 100 100 SSE 5 7 30.06 1018 10 16 0.02 0.51
12:53 pm 12:53 Cloudy 75 23.9 73 22.8 94 94 Calm 30.06 1018 10 16 0.01 0.25
1:05 pm 13:05 Cloudy 76 24.4 73 22.8 91 91 SSE 6 9 30.06 1018 10 16 0.00 0.00
1:30 pm 13:30 Mostly Cloudy 76 24.4 72 22.2 88 88 undefined N/A 30.06 1018 10 16 0.00 0.00
1:53 pm 13:53 Cloudy 77 25 72 22.2 85 85 Calm 30.04 1017 10 16 0.00 0.00
2:14 pm 14:14 Cloudy 77 25 71 21.7 82 82 SE 3 6 30.00 1016 10 16 0.00 0.00
2:53 pm 14:53 Mostly Cloudy 78 25.6 72 22.2 82 82 SE 3 6 30.02 1017 10 16 0.00 0.00
3:24 pm 15:24 Mostly Cloudy 78 25.6 71 21.7 79 79 ESE 6 9 30.00 1016 10 16 0.00 0.00
3:49 pm 15:49 Mostly Cloudy 79 26 72 22 79 79 Calm 30.00 1016 10 16 0.00 0.00
3:53 pm 15:53 Cloudy 77 25 71 21.7 82 82 E 3 6 30.01 1016 10 16 0.00 0.00
4:48 pm 16:48 Cloudy 75 24 73 23 94 94 Calm 30.03 1017 10 16 0.00 0.03
4:53 pm 16:53 Cloudy with Light Rain 75 23.9 74 23.3 96 96 Calm 30.00 1016 5 8 0.03 0.76
5:00 pm 17:00 Cloudy with Light Rain 74 23.3 74 23.3 100 100 NNE 5 7 30.03 1017 4 6 0.00 0.03
5:36 pm 17:36 Cloudy with Heavy Rain 72 22.2 72 22.2 100 100 NW 7 11 30.03 1017 1 1 0.22 5.59
5:47 pm 17:47 Cloudy with Heavy Rain 72 22 72 22 100 100 N 6 9 30.03 1017 1 2 0.38 9.65
5:53 pm 17:53 Cloudy with Rain 72 22.2 72 22.2 100 100 Calm 29.99 1016 2 3 0.40 10.16
6:01 pm 18:01 Cloudy with Light Rain 73 22.8 73 22.8 100 100 Calm 30.03 1017 7 11 0.01 0.25
6:34 pm 18:34 Cloudy 74 23.3 73 22.8 97 97 E 3 6 30.03 1017 10 16 0.01 0.25
6:53 pm 18:53 Cloudy 73 22.8 73 22.8 100 100 Calm 29.99 1016 10 16 0.01 0.25
7:05 pm 19:05 Cloudy 73 22.8 73 22.8 100 100 Calm 30.03 1017 9 14 0.00 0.00
7:16 pm 19:16 Cloudy 73 22.8 73 22.8 100 100 E 3 6 30.03 1017 10 16 0.00 0.00
7:25 pm 19:25 Cloudy with Light Rain 73 22.8 73 22.8 100 100 VRB 3 6 30.03 1017 7 11 0.00 0.03
7:39 pm 19:39 Cloudy with Light Rain 73 22.8 73 22.8 100 100 Calm 30.03 1017 4 6 0.01 0.25
7:49 pm 19:49 Cloudy with Light Rain 73 23 73 23 100 100 VRB 3 6 30.03 1017 6 10 0.01 0.25
7:53 pm 19:53 Cloudy with Light Rain 73 22.8 73 22.8 100 100 VRB 3 6 30.00 1016 8 13 0.01 0.25
8:05 pm 20:05 Cloudy with Light Rain 72 22.2 72 22.2 100 100 ESE 5 7 30.03 1017 3 4 0.02 0.51
8:11 pm 20:11 Cloudy with Heavy Rain 72 22.2 72 22.2 100 100 ENE 5 7 30.03 1017 2 2 0.06 1.52
8:29 pm 20:29 Cloudy with Heavy Rain 70 21.1 70 21.1 100 100 Calm 30.03 1017 2 3 0.20 5.08
8:37 pm 20:37 Cloudy with Heavy Rain 70 21.1 70 21.1 100 100 Calm 30.03 1017 2 3 0.25 6.35
8:53 pm 20:53 Cloudy with Heavy Rain 70 21.1 70 21.1 100 100 NNE 3 6 30.01 1016 3 4 0.35 8.89
9:05 pm 21:05 Cloudy with Light Rain 70 21.1 70 21.1 100 100 NNE 3 6 30.03 1017 4 6 0.02 0.51
9:51 pm 21:51 Cloudy 72 22 72 22 100 100 Calm 30.03 1017 10 16 0.02 0.51
9:53 pm 21:53 Cloudy with Light Rain 71 21.7 71 21.7 100 100 Calm 30.02 1017 10 16 0.02 0.51
10:22 pm 22:22 Cloudy with Light Rain 71 21.7 71 21.7 100 100 Calm 30.03 1017 9 14 0.01 0.25
10:53 pm 22:53 Cloudy with Heavy Rain 71 21.7 71 21.7 100 100 ENE 3 6 30.04 1017 3 5 0.09 2.29
11:53 pm 23:53 Mostly Cloudy with Light Rain 71 21.7 71 21.7 100 100 Calm 30.03 1017 10 16 0.08 2.03

Powered by AerisWeather